Location: Celina Division
(33.3022°N, 96.7580°W)
Time: 01:13:06
(UTC+00:00)

Nadezhda 4 Rocket - Pass Details

Date: 07 July 2022
Orbit: 950 x 991 km, 82.9° (Epoch: 17 August)

Event Time Altitude Azimuth Distance (km) Brightness Sun altitude
Rises 10:40:47 0° 162° (SSE) 3,644 6.8 -8.6°
Reaches altitude 10° 10:43:27 10° 154° (SSE) 2,695 6.2 -8.1°
Maximum altitude 10:49:02 37° 89° (E) 1,448 5.6 -7.2°
Drops below altitude 10° 10:54:35 10° 24° (NNE) 2,686 7.3 -6.2°
Sets 10:57:14 0° 17° (NNE) 3,632 7.8 -5.7°
